Weather History for KMMV - February, 2014

Change the Weather History Date:

Friday, February 7, 2014

  Actual Average Record
Temperature  
Mean Temperature 25 °F 42 °F  
Max Temperature 28 °F 50 °F 62 °F (1963)
Min Temperature 21 °F 35 °F 16 °F (1929)
Degree Days  
Heating Degree Days 40 23  
Month to date heating degree days 222 161  
Since 1 July heating degree days 2993 2916  
Cooling Degree Days 0 0  
Month to date cooling degree days 0 0  
Year to date cooling degree days 0 0  
Moisture  
Dew Point 23 °F    
Average Humidity 91    
Maximum Humidity 100    
Minimum Humidity 81    
Precipitation  
Precipitation 0.00 in 0.19 in 2.40 in (1996)
Month to date precipitation 0.07 1.41  
Year to date precipitation 2.76 7.51  
Sea Level Pressure  
Sea Level Pressure 29.80 in    
Wind  
Wind Speed 7 mph (North)    
Max Wind Speed 16 mph    
Max Gust Speed 21 mph    
Visibility 3 miles    
Events Fog , Rain , Snow    
T = Trace of Precipitation, MM = Missing Value Source: NWS Daily Summary

Daily Weather History Graph

Daily Weather History Graph

Search for Another Location

Airport or City:

Trip Planner

Search our weather history database for the weather conditions in past years. The results will help you decide how hot, cold, wet, or windy it might be!

Date:

Astronomy

Feb. 07, 2014 Rise Set
Actual Time 7:25 AM PST 5:28 PM PST
Civil Twilight 6:54 AM PST 5:59 PM PST
Nautical Twilight 6:19 AM PST 6:34 PM PST
Astronomical Twilight 5:45 AM PST 7:09 PM PST
Moon 11:41 AM PST (2/7) 1:48 AM PST (2/7)
Length of Visible Light 11h 05m
Length of Day
10h 03m
First Quarter, 60% of the Moon is Illuminated
Feb 7
First Quarter
Feb 14
Full
Feb 22
Last Quarter
Mar 1
New
Mar 8
First Quarter

Hourly Weather History & Observations

Time (PST) Temp. Windchill Dew Point Humidity Pressure Visibility Wind Dir Wind Speed Gust Speed Precip Events Conditions
12:53 AM 21.0 °F 14.6 °F 17.1 °F 85% 29.87 in 10.0 mi North 4.6 mph - N/A   Overcast
1:53 AM 21.0 °F - 18.0 °F 88% 29.90 in 10.0 mi Calm Calm - N/A   Overcast
2:53 AM 21.9 °F 17.2 °F 18.0 °F 85% 29.92 in 10.0 mi ENE 3.5 mph - N/A   Overcast
3:53 AM 21.0 °F 14.6 °F 17.1 °F 85% 29.93 in 10.0 mi NE 4.6 mph - N/A   Overcast
4:53 AM 21.0 °F 14.6 °F 17.1 °F 85% 29.94 in 10.0 mi NE 4.6 mph - N/A   Overcast
5:53 AM 21.9 °F - 17.1 °F 82% 29.94 in 10.0 mi Calm Calm - N/A   Overcast
6:53 AM 21.0 °F 16.2 °F 17.1 °F 85% 29.93 in 10.0 mi North 3.5 mph - N/A   Overcast
7:53 AM 21.0 °F 12.4 °F 17.1 °F 85% 29.94 in 10.0 mi North 6.9 mph - N/A   Overcast
8:53 AM 21.9 °F 12.5 °F 17.1 °F 82% 29.92 in 10.0 mi NNE 8.1 mph - N/A   Overcast
9:53 AM 23.0 °F 17.0 °F 18.0 °F 81% 29.92 in 10.0 mi NNW 4.6 mph - N/A   Overcast
10:53 AM 24.1 °F 17.0 °F 19.0 °F 81% 29.91 in 10.0 mi NNW 5.8 mph - N/A   Overcast
11:21 AM 25.0 °F 19.3 °F 19.9 °F 81% 29.89 in 2.5 mi North 4.6 mph - 0.00 in Snow Light Snow
11:29 AM 25.0 °F 18.1 °F 19.9 °F 81% 29.89 in 1.0 mi NNW 5.8 mph - 0.00 in Snow Light Snow
11:45 AM 25.0 °F 19.3 °F 21.0 °F 85% 29.88 in 0.5 mi North 4.6 mph - 0.00 in Fog , Snow Snow
11:53 AM 25.0 °F 18.1 °F 21.0 °F 85% 29.89 in 0.8 mi North 5.8 mph - 0.00 in Snow Light Snow
12:01 PM 25.0 °F 17.1 °F 21.0 °F 85% 29.87 in 1.0 mi North 6.9 mph - 0.00 in Snow Light Snow
12:16 PM 24.1 °F 16.0 °F 21.9 °F 91% 29.87 in 0.8 mi NNW 6.9 mph - 0.00 in Snow Light Snow
12:24 PM 24.1 °F 16.0 °F 21.9 °F 91% 29.86 in 1.0 mi North 6.9 mph - 0.00 in Snow Light Snow
12:34 PM 25.0 °F 16.3 °F 21.9 °F 88% 29.85 in 0.8 mi North 8.1 mph - 0.00 in Snow Light Snow
12:46 PM 25.0 °F 17.1 °F 21.9 °F 88% 29.85 in 1.0 mi NNW 6.9 mph - 0.00 in Snow Light Snow
12:53 PM 25.0 °F 17.1 °F 21.9 °F 88% 29.86 in 0.8 mi North 6.9 mph - 0.00 in Snow Light Snow
1:23 PM 25.0 °F 15.5 °F 21.9 °F 88% 29.83 in 1.0 mi North 9.2 mph - 0.00 in Snow Light Snow
1:31 PM 25.0 °F 17.1 °F 23.0 °F 92% 29.82 in 0.8 mi North 6.9 mph - 0.00 in Snow Light Snow
1:53 PM 26.1 °F 18.4 °F 23.0 °F 88% 29.81 in 0.8 mi North 6.9 mph - 0.00 in Snow Light Snow
2:53 PM 26.1 °F 16.8 °F 23.0 °F 88% 29.78 in 0.5 mi North 9.2 mph - 0.00 in Fog , Snow Snow
3:39 PM 26.1 °F 16.8 °F 24.1 °F 92% 29.75 in 0.5 mi North 9.2 mph - 0.00 in Fog , Snow Snow
3:50 PM 26.6 °F 16.8 °F 24.8 °F 93% 29.75 in 0.5 mi North 10.4 mph - 0.00 in Fog , Snow Snow
3:53 PM 26.1 °F 16.2 °F 24.1 °F 92% 29.75 in 0.5 mi North 10.4 mph - 0.00 in Fog , Snow Snow
4:02 PM 26.1 °F 15.0 °F 24.1 °F 92% 29.74 in 0.5 mi North 12.7 mph - 0.00 in Fog , Snow Snow
4:19 PM 26.1 °F 14.5 °F 24.1 °F 92% 29.73 in 0.5 mi North 13.8 mph - 0.00 in Fog , Snow Snow
4:53 PM 26.1 °F 15.6 °F 24.1 °F 92% 29.72 in 0.5 mi North 11.5 mph - 0.00 in Fog , Snow Snow
5:53 PM 27.0 °F 16.1 °F 25.0 °F 92% 29.68 in 0.8 mi North 12.7 mph - 0.00 in Snow Light Snow
6:00 PM 27.0 °F 16.1 °F 25.0 °F 92% 29.67 in 1.0 mi North 12.7 mph - 0.00 in Snow Light Snow
6:27 PM 27.0 °F 16.1 °F 25.0 °F 92% 29.67 in 1.5 mi North 12.7 mph - 0.00 in Snow Light Snow
6:53 PM 27.0 °F 18.7 °F 26.1 °F 96% 29.68 in 1.2 mi NW 8.1 mph - 0.00 in Snow Light Snow
7:49 PM 26.6 °F 15.7 °F 26.6 °F 100% 29.67 in 0.8 mi NNW 12.7 mph - 0.00 in Snow Light Snow
7:53 PM 27.0 °F 15.6 °F 26.1 °F 96% 29.68 in 0.8 mi NNW 13.8 mph - 0.00 in Snow Light Snow
8:03 PM 28.0 °F 17.0 °F 26.1 °F 92% 29.67 in 1.0 mi NNW 13.8 mph - 0.00 in Snow Light Snow
8:10 PM 28.0 °F 18.1 °F 26.1 °F 92% 29.67 in 1.2 mi North 11.5 mph - 0.00 in Snow Light Snow
8:27 PM 28.0 °F 17.0 °F 26.1 °F 92% 29.68 in 2.5 mi North 13.8 mph - 0.00 in Snow Light Snow
8:35 PM 28.0 °F 18.1 °F 26.1 °F 92% 29.69 in 4.0 mi NNW 11.5 mph - 0.00 in Snow Light Snow
8:53 PM 28.0 °F 17.0 °F 26.1 °F 92% 29.70 in 3.0 mi North 13.8 mph - 0.00 in Snow Light Snow
9:06 PM 28.0 °F 18.6 °F 26.1 °F 92% 29.70 in 2.5 mi NNW 10.4 mph - 0.00 in Snow Light Snow
9:21 PM 28.0 °F 17.5 °F 26.1 °F 92% 29.71 in 3.0 mi North 12.7 mph - 0.00 in   Overcast
9:53 PM 28.0 °F 17.0 °F 26.1 °F 92% 29.73 in 3.0 mi North 13.8 mph - 0.00 in Rain Light Freezing Rain
10:37 PM 28.0 °F 19.3 °F 26.1 °F 92% 29.75 in 3.0 mi North 9.2 mph - 0.00 in Snow Light Snow
10:53 PM 28.0 °F 19.3 °F 26.1 °F 92% 29.77 in 3.0 mi North 9.2 mph - 0.00 in Rain Light Freezing Rain
11:09 PM 28.0 °F 18.6 °F 26.1 °F 92% 29.77 in 4.0 mi North 10.4 mph - 0.00 in   Overcast
11:42 PM 28.0 °F 20.0 °F 26.1 °F 92% 29.80 in 2.5 mi NNW 8.1 mph - 0.00 in Snow Light Snow
11:53 PM 27.0 °F 18.7 °F 26.1 °F 96% 29.82 in 3.0 mi NNW 8.1 mph - 0.00 in   Overcast